Regional Weather Roundup
Issued by NWS Charleston, SC

Current Version | Previous Version | Text Only | Print | Product List | Glossary Off
Versions: 1 2 3 4 5 6 7 8 9 10 11 12 13 14 15 16 17 18 19 20 21 22 23 24 25 26 27 28 29 30 31 32 33 34 35 36 37 38 39 40 41 42 43 44 45 46 47 48 49 50

258
ASUS42 KCHS 091127
RWRCHS

REGIONAL WEATHER ROUNDUP
NATIONAL WEATHER SERVICE CHARLESTON SC
600 AM EST TUE FEB 09 2016

NOTE: "FAIR" INDICATES FEW OR NO CLOUDS BELOW 12,000 FEET WITH NO
SIGNIFICANT WEATHER AND/OR OBSTRUCTIONS TO VISIBILITY.

NOT ALL STATIONS ARE QUALITY CONTROLLED BY THE NATIONAL
WEATHER SERVICE. USE DATA WITH CAUTION...ESPECIALLY
DEWPOINT OBSERVATIONS.

NOTICE: OBSERVATIONS FOR THE SAVANNAH-HILTON HEAD INTERNATIONAL AIRPORT
/KSAV/ HAVE BEEN TEMPORARILY REMOVED DUE TO AN ERRONEOUS TEMPERATURE
SENSOR. THE OBSERVATION WILL BE REINTRODUCED ONCE REPAIRS ARE COMPLETE.

SCZ027-030-031-034>040-042>050-091200-
...SOUTHEAST SOUTH CAROLINA...

CITY           SKY/WX    TMP DP  RH WIND       PRES   REMARKS
N CHARLESTON   CLEAR     38  27  64 W9        29.80R WCI  31
WATERFRONT PRK   N/A     40  30  67 W7        29.63R WCI  35
MOUNT PLEASANT FAIR      39  30  70 W9G16     29.80R WCI  33
JOHNS ISLAND   FAIR      39  28  65 W14       29.81R WCI  31
PINOPOLIS        N/A     41  28  60 W18       29.69R
MONCKS CORNER  FAIR      36  21  55 W5        29.79R WCI  32
SUMMERVILLE    FAIR      34  32  93 SW6       29.81R WCI  29
BEAUFORT MCAS  CLEAR     38  28  67 W8        29.83R WCI  32
BEAUFORT ARPT  FAIR      37  28  70 W10       29.83S WCI  30
HILTON HEAD IS NOT AVBL
WALTERBORO     MOSUNNY   37  30  75 W6        29.82S WCI  33
ALLENDALE      FAIR      36  28  75 CALM      29.81R

...SOUTHERN MIDLANDS AND PEE DEE...

CITY           SKY/WX    TMP DP  RH WIND       PRES   REMARKS
GEORGETOWN     NOT AVBL
KINGSTREE      NOT AVBL
ORANGEBURG     CLEAR     37  21  52 W10       29.77R WCI  30
BARNWELL       PTSUNNY   36  28  75 CALM      29.80S
AIKEN          FAIR      32  23  69 SW7       29.80R WCI  26
MANNING        FAIR      36  21  55 W6G18     29.76S WCI  31
COLUMBIA       MOCLDY    36  21  54 W13G21    29.75R WCI  27
SUMTER         CLEAR     35  22  59 W12       29.73R WCI  27
FLORENCE       CLEAR     37  25  61 W14G23    29.71R WCI  28
MYRTLE BEACH   PTCLDY    39  25  56 W12       29.74R WCI  32
N MYRTLE BEACH PTCLDY    40  30  67 W7        29.70R WCI  35

$$

GAZ063-065-086>088-099>101-113>116-118-119-134>141-150-091200-
...SOUTHEAST GEORGIA...

CITY           SKY/WX    TMP DP  RH WIND       PRES   REMARKS
SAVANNAH ARPT  CLEAR     35  27  72 W7        29.85S WCI  29
HUNTER AAF     CLEAR     35  29  77 SW6       29.83S WCI  30
FORT STEWART   CLEAR     35  29  78 SW2       29.84S
STATESBORO     CLEAR     39  24  54 W5        29.84S WCI  36
SYLVANIA       SUNNY     36  30  81 W3        29.84S
CLAXTON        FAIR      37  30  77 SW7       29.85S WCI  31

...CSRA...CENTRAL AND FAR SOUTHEAST GEORGIA...

CITY           SKY/WX    TMP DP  RH WIND       PRES   REMARKS
THOMSON        CLOUDY    37  31  80 CALM      29.84R
AUGUSTA-BUSH   CLOUDY    36  25  64 W5        29.80S WCI  32
AUGUSTA-DANIEL CLOUDY    37  23  56 W3        29.79S
SWAINSBORO     FAIR      34  27  75 W5        29.85R WCI  30
VIDALIA        CLEAR     36  27  69 W7        29.87R WCI  30
EASTMAN        PTSUNNY   37  26  64 W8        29.91R WCI  31
HAZLEHURST     FAIR      36  30  80 SW7       29.88R WCI  30
ALMA           CLEAR     37  28  70 W9        29.90R WCI  30
WAYCROSS       CLEAR     40  31  69 W7        29.94R WCI  36
JESUP          FAIR      36  34  93 SW3       29.89R
BAXLEY         FAIR      37  30  75 SW7       29.91R WCI  32
BRUNSWICK      CLEAR     37  32  81 W10       29.91R WCI  30
SAINT SIMONS   CLEAR     40  32  73 W9        29.89R WCI  34

$$

SCZ027-028-034-036>038-045-046-048>050-GAZ119-141-091200-
...LAKE AND SUPPLEMENTAL COASTAL OBSERVATIONS...

STATION/POSITION TIME  TEMP    WIND        PRES    WAVE   SWELL
                       AIR SEA DIR/SP/G            HT/PER HT/PER/DIR
                 (UTC) (F)     (DEG/KT/KT) (MB)    (FT/S) (FT/S/D)
WINYAH BAY       1000   40     250/  7     1005.0S
LAKE MURRAY      1000   38     270/ 13/ 25 1006.1R
ACE BASIN NERRS  1045   38     290/  3     1009.0S
FORT PULASKI     1100   41 52  260/ 11/ 14 1011.0R
SAPELO ISLAND    1100   41     250/  7     1012.0R

$$

ANZ835-935-AMZ111-154-330-350-352-354-370-450-454-472-091200-
...C-MAN AND BUOY OBSERVATIONS...

STATION/POSITION TIME  TEMP    WIND        PRES    WAVE   SWELL
                       AIR SEA DIR/SP/G            HT/PER HT/PER/DIR
                 (UTC) (F)     (DEG/KT/KT) (MB)    (FT/S) (FT/S/D)
BUOY 41004       1050   49 65  270/ 27/ 33 1007.1R   9/ 6   2/14
BUOY 41008       1050   45 54  290/ 19/ 23 1011.2R   4/ 5
FOLLY BEACH CMAN 1100   39     270/  8/ 12 1009.3R
CAPERS NEARSHORE 1008   44     280/ 19/ 25 1007.0R
FRIPP NEARSHORE  1000   44     290/ 21/ 25 1009.4R


STATION/POSITION TIME  TEMP    WIND        PRES    WAVE   SWELL
                       AIR SEA DIR/SP/G            HT/PER HT/PER/DIR
                 (UTC) (F)     (DEG/KT/KT) (MB)    (FT/S) (FT/S/D)
5E ST. MARYS GA  1021      56                N/A     3/17   2/ 90/17
FRYING PAN BUOY  1100   49 62  270/ 27/ 31 1005.4R
BUOY 41025       1050   48 73  300/ 16/ 21 1001.6R  10/15   8/ 90/15
CAPE LOOKOUT NC  NOT AVBL
BUOY 41002       1050   59 69  280/ 29/ 33   N/A    16/ 9   7/320/16
BUOY 41010       1020   62 72              1010.1R
ST AUGUSTINE FL  1100   46 57  270/  8/ 11 1015.4R


$$




USA.gov is the U.S. government's official web portal to all federal, state and local government web resources and services.